Regional Weather Roundup
Issued by NWS New Orleans/Baton Rouge, LA

Home | Current Version | Previous Version | Text Only | Print | Product List | Glossary On
Versions: 1 2 3 4 5 6 7 8 9 10 11 12 13 14 15 16 17 18 19 20 21 22 23 24 25 26 27 28 29 30 31 32 33 34 35 36 37 38 39 40 41 42 43 44 45 46 47 48 49 50
048
ASUS44 KLIX 260605
RWRLIX
NEW ORLEANS REGIONAL WEATHER ROUNDUP
NATIONAL WEATHER SERVICE NEW ORLEANS LA
1200 AM CST WED NOV 26 2014

NOTE: "FAIR" INDICATES FEW OR NO CLOUDS BELOW 12,000 FEET WITH NO
      SIGNIFICANT WEATHER AND/OR OBSTRUCTIONS TO VISIBILITY.
      SKY/WX - SKY CONDITION AND SIGNIFICANT WEATHER.
      TMP - AIR TEMPERATURE.     DP    - DEWPOINT TEMPERATURE.
      RH  - RELATIVE HUMIDITY.   PRES  - PRESSURE.
      HI  - HEAT INDEX.          WCI   - WIND CHILL INDEX.

*  THESE STATIONS ARE NOT NWS OR FAA STATIONS AND ARE NOT UNDER
   NWS QUALITY CONTROL.

LAZ038-040-048-061>063-065>067-069-260700-
SOUTHEAST LOUISIANA

CITY           SKY/WX    TMP DP  RH WIND       PRES   REMARKS
N.O. AUDUBON     N/A     47  36  64 MISG        N/A
6HR MIN TEMP:  47; 6HR MAX TEMP:  54;

N.O. INTL ARPT CLEAR     47  34  60 NW8       30.23S
6HR MIN TEMP:  47; 6HR MAX TEMP:  54;

N.O. LAKEFRONT CLEAR     50  36  58 NW18      30.23S
6HR MIN TEMP:  50; 6HR MAX TEMP:  55;

N.O. DOWNTOWN*   N/A     48  32  53 NW6       30.23R
6HR MIN TEMP:  48; 6HR MAX TEMP:  55;

SLIDELL        CLEAR     41  32  70 NW3       30.21S
6HR MIN TEMP:  41; 6HR MAX TEMP:  51;

BATON ROUGE    CLEAR     36  32  85 CALM      30.23F
6HR MIN TEMP:  36; 6HR MAX TEMP:  49;

BOOTHVILLE     MOCLDY    51  34  52 NW15      30.21R
6HR MIN TEMP:  51; 6HR MAX TEMP:  55;

BELLE CHASSE   CLEAR     48  34  58 NW5       30.22R
6HR MIN TEMP:  48; 6HR MAX TEMP:  55;

BOGALUSA*        N/A     37  32  81 CALM      30.23S
6HR MIN TEMP:  37; 6HR MAX TEMP:  51;

NEW ROADS*       N/A     35  34  96 CALM      30.23F
6HR MIN TEMP:  35; 6HR MAX TEMP:  47;

GONZALES*        N/A     38  37  97 CALM      30.23F
6HR MIN TEMP:  38; 6HR MAX TEMP:  51;

HAMMOND*       CLEAR     37  34  87 CALM      30.24S
HOUMA*         CLEAR     42  35  75 NW6       30.24S
6HR MIN TEMP:  42; 6HR MAX TEMP:  52;

PORT FOURCHON* CLEAR     48  36  61 N13       30.26R

$$

MSZ070-080>082-260700-
SOUTHERN MISSISSIPPI

CITY           SKY/WX    TMP DP  RH WIND       PRES   REMARKS
MCCOMB         CLEAR     35  29  78 CALM      30.21S
6HR MIN TEMP:  33; 6HR MAX TEMP:  47;

GULFPORT       PTCLDY    44  32  62 NW7       30.18S
6HR MIN TEMP:  44; 6HR MAX TEMP:  53;

BILOXI         MOCLDY    47  31  53 N9        30.18R
6HR MIN TEMP:  47; 6HR MAX TEMP:  54;

PASCAGOULA     CLOUDY    48  30  49 N8        30.16S
6HR MIN TEMP:  48; 6HR MAX TEMP:  54;


$$

COASTAL OBSERVATIONS
LAKE AND NEARSHORE STATIONS

STATION/POSITION TIME  TEMP    WIND        PRES    WAVE
                       AIR SEA DIR/SP/G            HT/PER
                 (UTC) (F)     (DEG/KT/KT) (MB)    (FT/S)
PASCAGOULA       0600   49     330/  8/ 15 1020.9
WAVELAND YACHT   0600   46     320/  8/ 11 1021.7
GRAND ISLE       0600   51 60  350/ 16/ 21 1023.6
SOUTHWEST PASS   0600   54                 1022.6
NEW CANAL        0600   50 55  350/ 12/ 16 1023.8
SHELL BEACH      0600   50 53  330/ 17/ 20 1022.9

OFFSHORE STATIONS

STATION/POSITION TIME  TEMP    WIND        PRES    WAVE
                       AIR SEA DIR/SP/G            HT/PER
                 (UTC) (F)     (DEG/KT/KT) (MB)    (FT/S)
64 S DAUPHIN ISL 0528   58 71  350/ 19/ 23 1020.7    6/ 5

$$




USA.gov is the U.S. government's official web portal to all federal, state and local government web resources and services.